﻿測定場所 (Monitoring sites),日付 (Measurement date),時間 (Measurement time),線量率 最大値 (max) μGy/h,線量率 最小値 (min) μGy/h,線量率 平均値 (average) μGy/h,
小平 (Kodaira),2019-11-24,23:01～24:00,0.0313,0.0273,0.0297,
小平 (Kodaira),2019-11-24,22:01～23:00,0.0312,0.0276,0.0295,
小平 (Kodaira),2019-11-24,21:01～22:00,0.0307,0.0266,0.0295,
小平 (Kodaira),2019-11-24,20:01～21:00,0.0313,0.0278,0.0296,
小平 (Kodaira),2019-11-24,19:01～20:00,0.0322,0.0273,0.0296,
小平 (Kodaira),2019-11-24,18:01～19:00,0.0319,0.0280,0.0296,
小平 (Kodaira),2019-11-24,17:01～18:00,0.0310,0.0274,0.0292,
小平 (Kodaira),2019-11-24,16:01～17:00,0.0318,0.0275,0.0293,
小平 (Kodaira),2019-11-24,15:01～16:00,0.0306,0.0271,0.0291,
小平 (Kodaira),2019-11-24,14:01～15:00,0.0309,0.0269,0.0293,
小平 (Kodaira),2019-11-24,13:01～14:00,0.0328,0.0279,0.0293,
小平 (Kodaira),2019-11-24,12:01～13:00,0.0313,0.0272,0.0292,
小平 (Kodaira),2019-11-24,11:01～12:00,0.0315,0.0266,0.0294,
小平 (Kodaira),2019-11-24,10:01～11:00,0.0317,0.0277,0.0296,
小平 (Kodaira),2019-11-24,09:01～10:00,0.0323,0.0285,0.0304,
小平 (Kodaira),2019-11-24,08:01～09:00,0.0344,0.0294,0.0319,
小平 (Kodaira),2019-11-24,07:01～08:00,0.0348,0.0307,0.0326,
小平 (Kodaira),2019-11-24,06:01～07:00,0.0355,0.0314,0.0334,
小平 (Kodaira),2019-11-24,05:01～06:00,0.0356,0.0308,0.0334,
小平 (Kodaira),2019-11-24,04:01～05:00,0.0369,0.0320,0.0348,
小平 (Kodaira),2019-11-24,03:01～04:00,0.0361,0.0314,0.0341,
小平 (Kodaira),2019-11-24,02:01～03:00,0.0362,0.0311,0.0338,
小平 (Kodaira),2019-11-24,01:01～02:00,0.0381,0.0334,0.0350,
小平 (Kodaira),2019-11-24,00:01～01:00,0.0372,0.0322,0.0343,
小平 (Kodaira),2019-11-23,23:01～24:00,0.0371,0.0318,0.0338,
小平 (Kodaira),2019-11-23,22:01～23:00,0.0347,0.0306,0.0328,
小平 (Kodaira),2019-11-23,21:01～22:00,0.0334,0.0302,0.0317,
小平 (Kodaira),2019-11-23,20:01～21:00,0.0345,0.0303,0.0324,
小平 (Kodaira),2019-11-23,19:01～20:00,0.0344,0.0307,0.0326,
小平 (Kodaira),2019-11-23,18:01～19:00,0.0357,0.0298,0.0329,
小平 (Kodaira),2019-11-23,17:01～18:00,0.0345,0.0306,0.0331,
小平 (Kodaira),2019-11-23,16:01～17:00,0.0370,0.0305,0.0339,
小平 (Kodaira),2019-11-23,15:01～16:00,0.0366,0.0317,0.0344,
小平 (Kodaira),2019-11-23,14:01～15:00,0.0366,0.0317,0.0342,
小平 (Kodaira),2019-11-23,13:01～14:00,0.0381,0.0333,0.0354,
小平 (Kodaira),2019-11-23,12:01～13:00,0.0389,0.0323,0.0358,
小平 (Kodaira),2019-11-23,11:01～12:00,0.0406,0.0344,0.0366,
小平 (Kodaira),2019-11-23,10:01～11:00,0.0401,0.0345,0.0370,
小平 (Kodaira),2019-11-23,09:01～10:00,0.0401,0.0346,0.0366,
小平 (Kodaira),2019-11-23,08:01～09:00,0.0407,0.0346,0.0368,
小平 (Kodaira),2019-11-23,07:01～08:00,0.0385,0.0334,0.0359,
小平 (Kodaira),2019-11-23,06:01～07:00,0.0385,0.0331,0.0352,
小平 (Kodaira),2019-11-23,05:01～06:00,0.0389,0.0337,0.0364,
小平 (Kodaira),2019-11-23,04:01～05:00,0.0386,0.0346,0.0362,
小平 (Kodaira),2019-11-23,03:01～04:00,0.0387,0.0328,0.0355,
小平 (Kodaira),2019-11-23,02:01～03:00,0.0463,0.0357,0.0399,
小平 (Kodaira),2019-11-23,01:01～02:00,0.0460,0.0367,0.0400,
小平 (Kodaira),2019-11-23,00:01～01:00,0.0448,0.0372,0.0418,
小平 (Kodaira),2019-11-22,23:01～24:00,0.0461,0.0387,0.0419,
小平 (Kodaira),2019-11-22,22:01～23:00,0.0458,0.0401,0.0427,
小平 (Kodaira),2019-11-22,21:01～22:00,0.0452,0.0379,0.0426,
小平 (Kodaira),2019-11-22,20:01～21:00,0.0439,0.0386,0.0414,
小平 (Kodaira),2019-11-22,19:01～20:00,0.0463,0.0381,0.0412,
小平 (Kodaira),2019-11-22,18:01～19:00,0.0437,0.0368,0.0402,
小平 (Kodaira),2019-11-22,17:01～18:00,0.0453,0.0372,0.0405,
小平 (Kodaira),2019-11-22,16:01～17:00,0.0450,0.0364,0.0400,
小平 (Kodaira),2019-11-22,15:01～16:00,0.0443,0.0366,0.0403,
小平 (Kodaira),2019-11-22,14:01～15:00,0.0442,0.0375,0.0415,
小平 (Kodaira),2019-11-22,13:01～14:00,0.0463,0.0388,0.0425,
小平 (Kodaira),2019-11-22,12:01～13:00,0.0437,0.0368,0.0400,
小平 (Kodaira),2019-11-22,11:01～12:00,0.0434,0.0359,0.0397,
小平 (Kodaira),2019-11-22,10:01～11:00,0.0400,0.0351,0.0372,
小平 (Kodaira),2019-11-22,09:01～10:00,0.0408,0.0336,0.0364,
小平 (Kodaira),2019-11-22,08:01～09:00,0.0373,0.0310,0.0345,
小平 (Kodaira),2019-11-22,07:01～08:00,0.0345,0.0304,0.0322,
小平 (Kodaira),2019-11-22,06:01～07:00,0.0350,0.0300,0.0325,
小平 (Kodaira),2019-11-22,05:01～06:00,0.0350,0.0301,0.0328,
小平 (Kodaira),2019-11-22,04:01～05:00,0.0347,0.0297,0.0323,
小平 (Kodaira),2019-11-22,03:01～04:00,0.0327,0.0285,0.0308,
小平 (Kodaira),2019-11-22,02:01～03:00,0.0330,0.0288,0.0306,
小平 (Kodaira),2019-11-22,01:01～02:00,0.0325,0.0281,0.0305,
小平 (Kodaira),2019-11-22,00:01～01:00,0.0325,0.0284,0.0304,
小平 (Kodaira),2019-11-21,23:01～24:00,0.0328,0.0285,0.0305,
小平 (Kodaira),2019-11-21,22:01～23:00,0.0325,0.0290,0.0306,
小平 (Kodaira),2019-11-21,21:01～22:00,0.0327,0.0278,0.0307,
小平 (Kodaira),2019-11-21,20:01～21:00,0.0324,0.0286,0.0307,
小平 (Kodaira),2019-11-21,19:01～20:00,0.0323,0.0279,0.0301,
小平 (Kodaira),2019-11-21,18:01～19:00,0.0316,0.0279,0.0299,
小平 (Kodaira),2019-11-21,17:01～18:00,0.0321,0.0281,0.0298,
小平 (Kodaira),2019-11-21,16:01～17:00,0.0315,0.0281,0.0297,
小平 (Kodaira),2019-11-21,15:01～16:00,0.0320,0.0280,0.0302,
小平 (Kodaira),2019-11-21,14:01～15:00,0.0323,0.0285,0.0303,
小平 (Kodaira),2019-11-21,13:01～14:00,0.0332,0.0291,0.0305,
小平 (Kodaira),2019-11-21,12:01～13:00,0.0317,0.0283,0.0303,
小平 (Kodaira),2019-11-21,11:01～12:00,0.0321,0.0282,0.0303,
小平 (Kodaira),2019-11-21,10:01～11:00,0.0328,0.0283,0.0306,
小平 (Kodaira),2019-11-21,09:01～10:00,0.0335,0.0285,0.0308,
小平 (Kodaira),2019-11-21,08:01～09:00,0.0333,0.0295,0.0312,
小平 (Kodaira),2019-11-21,07:01～08:00,0.0344,0.0305,0.0322,
小平 (Kodaira),2019-11-21,06:01～07:00,0.0338,0.0300,0.0319,
小平 (Kodaira),2019-11-21,05:01～06:00,0.0332,0.0293,0.0312,
小平 (Kodaira),2019-11-21,04:01～05:00,0.0334,0.0289,0.0308,
小平 (Kodaira),2019-11-21,03:01～04:00,0.0327,0.0293,0.0308,
小平 (Kodaira),2019-11-21,02:01～03:00,0.0329,0.0299,0.0311,
小平 (Kodaira),2019-11-21,01:01～02:00,0.0339,0.0294,0.0313,
小平 (Kodaira),2019-11-21,00:01～01:00,0.0325,0.0288,0.0306,
小平 (Kodaira),2019-11-20,23:01～24:00,0.0327,0.0281,0.0300,
小平 (Kodaira),2019-11-20,22:01～23:00,0.0324,0.0283,0.0304,
小平 (Kodaira),2019-11-20,21:01～22:00,0.0316,0.0275,0.0301,
小平 (Kodaira),2019-11-20,20:01～21:00,0.0318,0.0278,0.0303,
小平 (Kodaira),2019-11-20,19:01～20:00,0.0321,0.0279,0.0301,
小平 (Kodaira),2019-11-20,18:01～19:00,0.0318,0.0284,0.0301,
小平 (Kodaira),2019-11-20,17:01～18:00,0.0321,0.0281,0.0304,
小平 (Kodaira),2019-11-20,16:01～17:00,0.0318,0.0288,0.0301,
小平 (Kodaira),2019-11-20,15:01～16:00,0.0322,0.0289,0.0304,
小平 (Kodaira),2019-11-20,14:01～15:00,0.0327,0.0277,0.0302,
小平 (Kodaira),2019-11-20,13:01～14:00,0.0325,0.0283,0.0304,
小平 (Kodaira),2019-11-20,12:01～13:00,0.0327,0.0287,0.0304,
小平 (Kodaira),2019-11-20,11:01～12:00,0.0328,0.0281,0.0306,
小平 (Kodaira),2019-11-20,10:01～11:00,0.0329,0.0287,0.0307,
小平 (Kodaira),2019-11-20,09:01～10:00,0.0323,0.0282,0.0305,
小平 (Kodaira),2019-11-20,08:01～09:00,0.0326,0.0287,0.0305,
小平 (Kodaira),2019-11-20,07:01～08:00,0.0323,0.0280,0.0301,
小平 (Kodaira),2019-11-20,06:01～07:00,0.0328,0.0282,0.0303,
小平 (Kodaira),2019-11-20,05:01～06:00,0.0328,0.0282,0.0303,
小平 (Kodaira),2019-11-20,04:01～05:00,0.0323,0.0285,0.0305,
小平 (Kodaira),2019-11-20,03:01～04:00,0.0329,0.0288,0.0304,
小平 (Kodaira),2019-11-20,02:01～03:00,0.0323,0.0275,0.0302,
小平 (Kodaira),2019-11-20,01:01～02:00,0.0328,0.0282,0.0303,
小平 (Kodaira),2019-11-20,00:01～01:00,0.0321,0.0284,0.0303,
小平 (Kodaira),2019-11-19,23:01～24:00,0.0319,0.0282,0.0301,
小平 (Kodaira),2019-11-19,22:01～23:00,0.0329,0.0282,0.0305,
小平 (Kodaira),2019-11-19,21:01～22:00,0.0319,0.0275,0.0301,
小平 (Kodaira),2019-11-19,20:01～21:00,0.0325,0.0279,0.0303,
小平 (Kodaira),2019-11-19,19:01～20:00,0.0317,0.0285,0.0302,
小平 (Kodaira),2019-11-19,18:01～19:00,0.0331,0.0279,0.0301,
小平 (Kodaira),2019-11-19,17:01～18:00,0.0325,0.0284,0.0301,
小平 (Kodaira),2019-11-19,16:01～17:00,0.0328,0.0282,0.0303,
小平 (Kodaira),2019-11-19,15:01～16:00,0.0332,0.0282,0.0305,
小平 (Kodaira),2019-11-19,14:01～15:00,0.0326,0.0284,0.0307,
小平 (Kodaira),2019-11-19,13:01～14:00,0.0332,0.0285,0.0308,
小平 (Kodaira),2019-11-19,12:01～13:00,0.0326,0.0289,0.0309,
小平 (Kodaira),2019-11-19,11:01～12:00,0.0330,0.0287,0.0310,
小平 (Kodaira),2019-11-19,10:01～11:00,0.0341,0.0295,0.0315,
小平 (Kodaira),2019-11-19,09:01～10:00,0.0328,0.0296,0.0313,
小平 (Kodaira),2019-11-19,08:01～09:00,0.0328,0.0296,0.0310,
小平 (Kodaira),2019-11-19,07:01～08:00,0.0330,0.0279,0.0310,
小平 (Kodaira),2019-11-19,06:01～07:00,0.0331,0.0297,0.0312,
小平 (Kodaira),2019-11-19,05:01～06:00,0.0360,0.0301,0.0328,
小平 (Kodaira),2019-11-19,04:01～05:00,0.0420,0.0336,0.0370,
小平 (Kodaira),2019-11-19,03:01～04:00,0.0427,0.0347,0.0380,
小平 (Kodaira),2019-11-19,02:01～03:00,0.0378,0.0332,0.0351,
小平 (Kodaira),2019-11-19,01:01～02:00,0.0364,0.0319,0.0345,
小平 (Kodaira),2019-11-19,00:01～01:00,0.0369,0.0300,0.0330,
小平 (Kodaira),2019-11-18,23:01～24:00,0.0342,0.0299,0.0322,
小平 (Kodaira),2019-11-18,22:01～23:00,0.0346,0.0299,0.0320,
小平 (Kodaira),2019-11-18,21:01～22:00,0.0332,0.0280,0.0313,
小平 (Kodaira),2019-11-18,20:01～21:00,0.0321,0.0281,0.0298,
小平 (Kodaira),2019-11-18,19:01～20:00,0.0317,0.0280,0.0298,
小平 (Kodaira),2019-11-18,18:01～19:00,0.0318,0.0285,0.0300,
小平 (Kodaira),2019-11-18,17:01～18:00,0.0325,0.0279,0.0303,
小平 (Kodaira),2019-11-18,16:01～17:00,0.0322,0.0281,0.0301,
小平 (Kodaira),2019-11-18,15:01～16:00,0.0328,0.0287,0.0304,
小平 (Kodaira),2019-11-18,14:01～15:00,0.0317,0.0281,0.0298,
小平 (Kodaira),2019-11-18,13:01～14:00,0.0317,0.0278,0.0297,
小平 (Kodaira),2019-11-18,12:01～13:00,0.0330,0.0284,0.0306,
小平 (Kodaira),2019-11-18,11:01～12:00,0.0340,0.0288,0.0309,
小平 (Kodaira),2019-11-18,10:01～11:00,0.0327,0.0281,0.0308,
小平 (Kodaira),2019-11-18,09:01～10:00,0.0337,0.0290,0.0314,
小平 (Kodaira),2019-11-18,08:01～09:00,0.0356,0.0311,0.0335,
小平 (Kodaira),2019-11-18,07:01～08:00,0.0362,0.0286,0.0316,
小平 (Kodaira),2019-11-18,06:01～07:00,0.0332,0.0293,0.0308,
小平 (Kodaira),2019-11-18,05:01～06:00,0.0329,0.0285,0.0305,
小平 (Kodaira),2019-11-18,04:01～05:00,0.0322,0.0285,0.0305,
小平 (Kodaira),2019-11-18,03:01～04:00,0.0326,0.0286,0.0304,
小平 (Kodaira),2019-11-18,02:01～03:00,0.0335,0.0289,0.0308,
小平 (Kodaira),2019-11-18,01:01～02:00,0.0329,0.0281,0.0305,
小平 (Kodaira),2019-11-18,00:01～01:00,0.0339,0.0285,0.0306,
